When you browse on this site, cookies collect data to enhance your experience and personalize the content and advertising you see.
Visit our Privacy Policy to learn more. By continuing to use the site, you agree to this use of cookies and data.
  • In United Kingdom
  • List of Countries
  • For 7 days
  • Water Temperature
  • Satellite Maps
  • Weather Map
  • Weather Widgets
  • user-avatar
    Login

    Hourly Weather Milicz

    Today, 22 February, Friday

    Time Temperature Precipitation Wind Pressure Humidity
    00:00 +6°C° 0.3 mm 5 mps 755 mmHg 93%
    01:00 +6°C° 0.3 mm 4 mps 756 mmHg 94%
    02:00 +5°C° 0.4 mm 5 mps 756 mmHg 92%
    03:00 +4°C° 0.4 mm 6 mps 757 mmHg 90%
    04:00 +3°C° 0.4 mm 6 mps 757 mmHg 88%
    05:00 +2°C° 0 mm 6 mps 758 mmHg 84%
    06:00 -1°C° 0 mm 7 mps 760 mmHg 80%
    07:00 -2°C° 0 mm 7 mps 761 mmHg 77%
    08:00 -2°C° 0 mm 6 mps 763 mmHg 69%
    09:00 -2°C° 0 mm 6 mps 764 mmHg 60%
    10:00 -2°C° 0 mm 6 mps 766 mmHg 52%
    11:00 -2°C° 0 mm 6 mps 766 mmHg 49%
    12:00 -1°C° 0 mm 5 mps 767 mmHg 47%
    13:00 -1°C° 0 mm 5 mps 768 mmHg 44%
    14:00 -1°C° 0 mm 5 mps 768 mmHg 43%
    15:00 -1°C° 0 mm 5 mps 769 mmHg 42%
    16:00 -1°C° 0 mm 4 mps 769 mmHg 41%
    17:00 -2°C° 0 mm 4 mps 770 mmHg 45%
    18:00 -2°C° 0 mm 3 mps 770 mmHg 48%
    19:00 -4°C° 0 mm 3 mps 771 mmHg 52%
    20:00 -4°C° 0 mm 3 mps 772 mmHg 52%
    21:00 -4°C° 0 mm 3 mps 772 mmHg 52%
    22:00 -3°C° 0 mm 2 mps 773 mmHg 51%
    23:00 -3°C° 0 mm 2 mps 773 mmHg 50%

    Tomorrow, 23 February, Saturday

    Time Temperature Precipitation Wind Pressure Humidity
    00:00 -3°C° 0 mm 2 mps 773 mmHg 49%
    01:00 -3°C° 0 mm 2 mps 773 mmHg 47%
    02:00 -3°C° 0 mm 2 mps 773 mmHg 46%
    03:00 -1°C° 0 mm 1 mps 773 mmHg 45%
    04:00 -1°C° 0 mm 1 mps 772 mmHg 44%
    05:00 -1°C° 0 mm 1 mps 773 mmHg 44%
    06:00 -2°C° 0 mm 1 mps 773 mmHg 44%
    07:00 -2°C° 0 mm 1 mps 773 mmHg 44%
    08:00 -1°C° 0 mm 1 mps 773 mmHg 39%
    09:00 0°C° 0 mm 1 mps 773 mmHg 34%
    10:00 +1°C° 0 mm 1 mps 773 mmHg 29%
    11:00 +2°C° 0 mm 1 mps 773 mmHg 27%
    12:00 +2°C° 0 mm 1 mps 773 mmHg 25%
    13:00 +3°C° 0 mm 1 mps 772 mmHg 23%
    14:00 +3°C° 0 mm 1 mps 772 mmHg 25%
    15:00 +3°C° 0 mm 1 mps 772 mmHg 26%
    16:00 +3°C° 0 mm 1 mps 771 mmHg 28%
    17:00 +2°C° 0 mm 1 mps 771 mmHg 31%
    18:00 +1°C° 0 mm 1 mps 771 mmHg 34%
    19:00 0°C° 0 mm 1 mps 771 mmHg 37%
    20:00 0°C° 0 mm 1 mps 771 mmHg 37%
    21:00 0°C° 0 mm 1 mps 771 mmHg 38%
    22:00 -2°C° 0 mm 2 mps 771 mmHg 39%
    23:00 -2°C° 0 mm 2 mps 770 mmHg 39%

    Day after tomorrow, 24 February, Sunday

    Time Temperature Precipitation Wind Pressure Humidity
    00:00 -2°C° 0 mm 2 mps 770 mmHg 40%
    01:00 -2°C° 0 mm 2 mps 770 mmHg 40%
    02:00 -2°C° 0 mm 2 mps 770 mmHg 40%
    03:00 -2°C° 0 mm 2 mps 770 mmHg 40%
    04:00 0°C° 0 mm 1 mps 769 mmHg 40%
    05:00 0°C° 0 mm 1 mps 769 mmHg 38%
    06:00 0°C° 0 mm 1 mps 769 mmHg 37%
    07:00 0°C° 0 mm 1 mps 769 mmHg 36%
    08:00 +1°C° 0 mm 2 mps 769 mmHg 34%
    09:00 +2°C° 0 mm 2 mps 769 mmHg 32%
    10:00 +3°C° 0 mm 2 mps 769 mmHg 30%
    11:00 +3°C° 0 mm 3 mps 769 mmHg 30%
    12:00 +4°C° 0 mm 3 mps 769 mmHg 31%
    13:00 +7°C° 0 mm 3 mps 768 mmHg 32%
    14:00 +5°C° 0 mm 3 mps 768 mmHg 36%
    15:00 +6°C° 0 mm 2 mps 768 mmHg 41%
    16:00 +6°C° 0 mm 2 mps 768 mmHg 45%
    17:00 +5°C° 0 mm 2 mps 768 mmHg 48%
    18:00 +4°C° 0 mm 2 mps 768 mmHg 51%
    19:00 +3°C° 0 mm 2 mps 769 mmHg 54%
    20:00 +2°C° 0 mm 2 mps 769 mmHg 56%
    21:00 +2°C° 0 mm 2 mps 769 mmHg 58%
    22:00 +2°C° 0 mm 2 mps 769 mmHg 60%
    23:00 +2°C° 0 mm 2 mps 769 mmHg 62%

    25 February, Monday

    Time Temperature Precipitation Wind Pressure Humidity
    00:00 +1°C° 0 mm 2 mps 769 mmHg 64%
    01:00 +1°C° 0 mm 2 mps 769 mmHg 66%
    02:00 +1°C° 0 mm 2 mps 769 mmHg 68%
    03:00 +1°C° 0 mm 2 mps 769 mmHg 69%
    04:00 0°C° 0 mm 3 mps 769 mmHg 71%
    05:00 +1°C° 0 mm 2 mps 769 mmHg 73%
    06:00 +1°C° 0 mm 2 mps 769 mmHg 74%
    07:00 +1°C° 0 mm 2 mps 769 mmHg 76%
    08:00 +1°C° 0 mm 3 mps 769 mmHg 71%
    09:00 +3°C° 0 mm 3 mps 769 mmHg 66%
    10:00 +4°C° 0 mm 3 mps 769 mmHg 61%
    11:00 +5°C° 0 mm 3 mps 769 mmHg 59%
    12:00 +8°C° 0 mm 3 mps 769 mmHg 57%
    13:00 +9°C° 0 mm 3 mps 768 mmHg 55%
    14:00 +9°C° 0 mm 3 mps 768 mmHg 56%
    15:00 +9°C° 0 mm 3 mps 768 mmHg 57%
    16:00 +9°C° 0 mm 2 mps 767 mmHg 58%
    17:00 +8°C° 0 mm 2 mps 768 mmHg 62%
    18:00 +7°C° 0 mm 2 mps 768 mmHg 66%
    19:00 +6°C° 0 mm 2 mps 768 mmHg 69%
    20:00 +5°C° 0 mm 2 mps 767 mmHg 71%
    21:00 +5°C° 0 mm 2 mps 767 mmHg 73%
    22:00 +5°C° 0 mm 2 mps 767 mmHg 74%
    23:00 +3°C° 0 mm 3 mps 767 mmHg 77%

    26 February, Tuesday

    Time Temperature Precipitation Wind Pressure Humidity
    00:00 +3°C° 0 mm 3 mps 766 mmHg 79%
    01:00 +3°C° 0 mm 3 mps 766 mmHg 81%
    02:00 +3°C° 0 mm 3 mps 765 mmHg 82%
    03:00 +2°C° 0 mm 3 mps 765 mmHg 82%
    04:00 +1°C° 0 mm 4 mps 764 mmHg 83%
    05:00 +1°C° 0 mm 4 mps 764 mmHg 85%
    06:00 +1°C° 0 mm 4 mps 764 mmHg 86%
    07:00 +1°C° 0 mm 4 mps 764 mmHg 87%
    08:00 +3°C° 0 mm 4 mps 764 mmHg 81%
    09:00 +3°C° 0 mm 5 mps 764 mmHg 74%
    10:00 +6°C° 0 mm 5 mps 763 mmHg 67%
    11:00 +6°C° 0 mm 5 mps 763 mmHg 68%
    12:00 +6°C° 0 mm 5 mps 763 mmHg 69%
    13:00 +6°C° 0 mm 5 mps 763 mmHg 70%
    14:00 +7°C° 0 mm 4 mps 763 mmHg 70%
    15:00 +7°C° 0 mm 4 mps 763 mmHg 71%
    16:00 +7°C° 0 mm 4 mps 763 mmHg 72%
    17:00 +7°C° 0 mm 3 mps 763 mmHg 77%
    18:00 +5°C° 0 mm 3 mps 763 mmHg 83%
    19:00 +5°C° 0 mm 2 mps 763 mmHg 89%
    20:00 +5°C° 0 mm 2 mps 763 mmHg 90%
    21:00 +4°C° 0 mm 2 mps 763 mmHg 92%
    22:00 +4°C° 0 mm 2 mps 764 mmHg 93%
    23:00 +4°C° 0 mm 2 mps 763 mmHg 93%

    27 February, Wednesday

    Time Temperature Precipitation Wind Pressure Humidity
    00:00 +3°C° 0 mm 2 mps 763 mmHg 94%
    01:00 +3°C° 0 mm 2 mps 763 mmHg 94%
    02:00 +3°C° 0 mm 2 mps 763 mmHg 93%
    03:00 +2°C° 0 mm 2 mps 763 mmHg 93%
    04:00 +2°C° 0 mm 2 mps 763 mmHg 92%
    05:00 +2°C° 0 mm 2 mps 763 mmHg 92%
    06:00 +3°C° 0 mm 1 mps 762 mmHg 92%
    07:00 +2°C° 0 mm 1 mps 762 mmHg 91%
    08:00 +3°C° 0 mm 2 mps 762 mmHg 87%
    09:00 +5°C° 0 mm 2 mps 762 mmHg 83%
    10:00 +6°C° 0 mm 2 mps 762 mmHg 79%
    11:00 +8°C° 0 mm 3 mps 761 mmHg 76%
    12:00 +9°C° 0 mm 3 mps 761 mmHg 73%
    13:00 +11°C° 0 mm 4 mps 760 mmHg 70%
    14:00 +10°C° 0 mm 4 mps 759 mmHg 73%
    15:00 +10°C° 0 mm 4 mps 758 mmHg 77%
    16:00 +10°C° 0 mm 4 mps 758 mmHg 81%
    17:00 +10°C° 0 mm 3 mps 757 mmHg 84%
    18:00 +9°C° 0 mm 3 mps 757 mmHg 87%
    19:00 +8°C° 0 mm 3 mps 756 mmHg 90%
    20:00 +8°C° 0 mm 3 mps 755 mmHg 90%
    21:00 +8°C° 0 mm 3 mps 755 mmHg 90%
    22:00 +7°C° 0 mm 4 mps 754 mmHg 91%
    23:00 +7°C° 0 mm 4 mps 754 mmHg 90%
    Show more